TimeCST,TemperatureF,Dew PointF,Humidity,Sea Level PressureIn,VisibilityMPH,Wind Direction,Wind SpeedMPH,Gust SpeedMPH,PrecipitationIn,Events,Conditions,WindDirDegrees,DateUTC
12:02 AM,1.4,-4.0,78,30.28,10.0,NNW,9.2,-,N/A,,Clear,340,2012-12-25 06:02:00
12:22 AM,1.4,-4.0,78,30.29,10.0,North,4.6,-,N/A,,Clear,350,2012-12-25 06:22:00
12:42 AM,1.4,-5.8,72,30.29,10.0,North,5.8,-,N/A,,Clear,350,2012-12-25 06:42:00
1:02 AM,1.4,-5.8,72,30.29,10.0,North,4.6,-,N/A,,Clear,350,2012-12-25 07:02:00
1:22 AM,-0.4,-5.8,78,30.29,10.0,North,4.6,-,N/A,,Clear,350,2012-12-25 07:22:00
1:42 AM,-0.4,-5.8,78,30.30,10.0,NNW,4.6,-,N/A,,Clear,340,2012-12-25 07:42:00
2:02 AM,-0.4,-5.8,78,30.31,10.0,NNW,5.8,-,N/A,,Clear,330,2012-12-25 08:02:00
2:22 AM,-0.4,-5.8,78,30.32,10.0,NW,4.6,-,N/A,,Clear,310,2012-12-25 08:22:00
2:42 AM,-0.4,-5.8,78,30.34,10.0,NNW,6.9,-,N/A,,Clear,330,2012-12-25 08:42:00
3:02 AM,-0.4,-5.8,78,30.34,10.0,NW,5.8,-,N/A,,Clear,320,2012-12-25 09:02:00
3:22 AM,-0.4,-5.8,78,30.35,10.0,NNW,5.8,-,N/A,,Clear,330,2012-12-25 09:22:00
3:42 AM,-0.4,-7.6,72,30.37,10.0,WNW,3.5,-,N/A,,Clear,290,2012-12-25 09:42:00
4:02 AM,-0.4,-5.8,78,30.37,10.0,NW,5.8,-,N/A,,Clear,310,2012-12-25 10:02:00
4:22 AM,-2.2,-7.6,78,30.37,10.0,NW,3.5,-,N/A,,Clear,320,2012-12-25 10:22:00
4:42 AM,-4.0,-7.6,85,30.38,10.0,NW,3.5,-,N/A,,Clear,310,2012-12-25 10:42:00
5:02 AM,-4.0,-7.6,85,30.38,10.0,Calm,Calm,-,N/A,,Clear,0,2012-12-25 11:02:00
5:22 AM,-4.0,-7.6,85,30.38,10.0,West,3.5,-,N/A,,Clear,280,2012-12-25 11:22:00
5:42 AM,-4.0,-7.6,85,30.39,10.0,NW,3.5,-,N/A,,Clear,320,2012-12-25 11:42:00
6:02 AM,-4.0,-7.6,85,30.39,10.0,NW,3.5,-,N/A,,Clear,310,2012-12-25 12:02:00
6:22 AM,-4.0,-7.6,85,30.39,10.0,Calm,Calm,-,N/A,,Clear,0,2012-12-25 12:22:00
6:42 AM,-4.0,-7.6,85,30.40,10.0,Calm,Calm,-,N/A,,Clear,0,2012-12-25 12:42:00
7:02 AM,-4.0,-7.6,85,30.40,10.0,Calm,Calm,-,N/A,,Clear,0,2012-12-25 13:02:00
7:22 AM,-4.0,-7.6,85,30.41,10.0,NW,4.6,-,N/A,,Clear,320,2012-12-25 13:22:00
7:42 AM,-4.0,-7.6,85,30.42,10.0,NW,5.8,-,N/A,,Clear,320,2012-12-25 13:42:00
8:02 AM,-4.0,-7.6,85,30.42,10.0,NW,5.8,-,N/A,,Clear,320,2012-12-25 14:02:00
8:22 AM,-4.0,-7.6,85,30.42,10.0,NNW,6.9,-,N/A,,Clear,340,2012-12-25 14:22:00
8:42 AM,-4.0,-7.6,85,30.43,10.0,NNW,6.9,-,N/A,,Clear,330,2012-12-25 14:42:00
9:02 AM,-0.4,-7.6,72,30.43,10.0,NNW,6.9,-,N/A,,Clear,330,2012-12-25 15:02:00
9:22 AM,-0.4,-5.8,78,30.44,10.0,NNW,5.8,-,N/A,,Clear,340,2012-12-25 15:22:00
9:41 AM,-0.4,-5.8,78,30.44,10.0,NNW,6.9,-,N/A,,Clear,330,2012-12-25 15:41:00
10:02 AM,1.4,-5.8,72,30.45,10.0,NNW,5.8,-,N/A,,Clear,340,2012-12-25 16:02:00
10:22 AM,3.2,-5.8,66,30.45,10.0,NNW,4.6,-,N/A,,Clear,340,2012-12-25 16:22:00
10:42 AM,5.0,-4.0,66,30.46,10.0,North,4.6,-,N/A,,Clear,350,2012-12-25 16:42:00
11:02 AM,5.0,-4.0,66,30.46,10.0,NNW,5.8,-,N/A,,Clear,340,2012-12-25 17:02:00
11:21 AM,6.8,-2.2,67,30.46,10.0,NNW,3.5,-,N/A,,Clear,340,2012-12-25 17:21:00
11:42 AM,6.8,-2.2,67,30.44,10.0,NNW,5.8,-,N/A,,Clear,340,2012-12-25 17:42:00
12:02 PM,6.8,-4.0,61,30.44,10.0,NNW,3.5,-,N/A,,Clear,330,2012-12-25 18:02:00
12:21 PM,8.6,-4.0,57,30.44,10.0,Calm,Calm,-,N/A,,Clear,0,2012-12-25 18:21:00
12:42 PM,8.6,-2.2,62,30.44,10.0,Calm,Calm,-,N/A,,Clear,0,2012-12-25 18:42:00
1:02 PM,10.4,-0.4,62,30.44,10.0,West,4.6,-,N/A,,Clear,260,2012-12-25 19:02:00
1:22 PM,10.4,-0.4,62,30.44,10.0,NW,4.6,-,N/A,,Clear,320,2012-12-25 19:22:00
1:42 PM,12.2,-0.4,57,30.44,10.0,WNW,3.5,-,N/A,,Clear,290,2012-12-25 19:42:00
2:02 PM,12.2,-0.4,57,30.44,10.0,NNW,4.6,-,N/A,,Clear,340,2012-12-25 20:02:00
2:22 PM,12.2,-0.4,57,30.43,10.0,NW,4.6,-,N/A,,Clear,320,2012-12-25 20:22:00
2:42 PM,12.2,-0.4,57,30.43,10.0,NNW,3.5,-,N/A,,Clear,330,2012-12-25 20:42:00
3:02 PM,12.2,-0.4,57,30.43,10.0,NW,5.8,-,N/A,,Clear,320,2012-12-25 21:02:00
3:22 PM,12.2,-0.4,57,30.43,10.0,NNW,3.5,-,N/A,,Clear,340,2012-12-25 21:22:00
3:41 PM,12.2,-0.4,57,30.42,10.0,NNW,5.8,-,N/A,,Clear,340,2012-12-25 21:41:00
4:02 PM,10.4,-0.4,62,30.42,10.0,NNW,5.8,-,N/A,,Clear,340,2012-12-25 22:02:00
4:22 PM,8.6,-0.4,67,30.42,10.0,NNW,5.8,-,N/A,,Clear,340,2012-12-25 22:22:00
4:42 PM,6.8,-2.2,67,30.41,10.0,Calm,Calm,-,N/A,,Clear,0,2012-12-25 22:42:00
5:02 PM,6.8,-0.4,72,30.42,10.0,NW,3.5,-,N/A,,Clear,320,2012-12-25 23:02:00
5:22 PM,6.8,-0.4,72,30.42,10.0,Calm,Calm,-,N/A,,Clear,0,2012-12-25 23:22:00
5:42 PM,6.8,-0.4,72,30.42,10.0,Calm,Calm,-,N/A,,Clear,0,2012-12-25 23:42:00
6:02 PM,3.2,-4.0,72,30.44,10.0,Calm,Calm,-,N/A,,Clear,0,2012-12-26 00:02:00
6:42 PM,1.4,-4.0,78,30.46,10.0,Calm,Calm,-,N/A,,Clear,0,2012-12-26 00:42:00
7:02 PM,1.4,-5.8,72,30.46,10.0,Calm,Calm,-,N/A,,Clear,0,2012-12-26 01:02:00
7:22 PM,-0.4,-5.8,78,30.47,10.0,Calm,Calm,-,N/A,,Clear,0,2012-12-26 01:22:00
7:42 PM,-0.4,-5.8,78,30.48,10.0,Calm,Calm,-,N/A,,Clear,0,2012-12-26 01:42:00
8:02 PM,-0.4,-5.8,78,30.47,10.0,Calm,Calm,-,N/A,,Clear,0,2012-12-26 02:02:00
8:22 PM,-0.4,-5.8,78,30.46,10.0,Calm,Calm,-,N/A,,Clear,0,2012-12-26 02:22:00
8:42 PM,1.4,-4.0,78,30.44,10.0,North,4.6,-,N/A,,Clear,350,2012-12-26 02:42:00
9:02 PM,1.4,-4.0,78,30.44,10.0,Calm,Calm,-,N/A,,Clear,0,2012-12-26 03:02:00
9:22 PM,3.2,-4.0,72,30.43,10.0,Calm,Calm,-,N/A,,Clear,0,2012-12-26 03:22:00
9:42 PM,3.2,-4.0,72,30.43,10.0,Calm,Calm,-,N/A,,Clear,0,2012-12-26 03:42:00
10:02 PM,1.4,-4.0,78,30.42,10.0,Calm,Calm,-,N/A,,Clear,0,2012-12-26 04:02:00
10:22 PM,1.4,-4.0,78,30.41,10.0,Calm,Calm,-,N/A,,Clear,0,2012-12-26 04:22:00
10:42 PM,-0.4,-5.8,78,30.40,10.0,Calm,Calm,-,N/A,,Clear,0,2012-12-26 04:42:00
11:02 PM,-0.4,-5.8,78,30.40,10.0,Calm,Calm,-,N/A,,Clear,0,2012-12-26 05:02:00
11:22 PM,-0.4,-5.8,78,30.40,10.0,Calm,Calm,-,N/A,,Clear,0,2012-12-26 05:22:00
11:41 PM,-0.4,-5.8,78,30.41,10.0,Calm,Calm,-,N/A,,Clear,0,2012-12-26 05:41:00